Location: Mesa
(33.4220°N, 111.8220°W)
Time: 00:39:00
(UTC-07:00)

N. Korean satellite - Pass Details

Date: 24 November 2019
Orbit: 456 x 506 km, 97.2° (Epoch: 07 December)

Event Time Altitude Azimuth Distance (km) Brightness Sun altitude
Rises 18:33:04 0° 206° (SSW) 2,560 10.9 -15.0°
Reaches altitude 10° 18:35:54 10° 231° (SW) 1,694 10.4 -15.6°
Maximum altitude 18:37:58 15° 266° (W) 1,440 10.1 -16.0°
Drops below altitude 10° 18:40:04 10° 301° (WNW) 1,712 10.0 -16.4°
Sets 18:42:58 0° 326° (NW) 2,607 10.5 -17.0°
